Preview of NWS' New Version of Forecast
This preview is not operational and should not be used for support decisions.

Regional Weather Roundup (RWR)

Issued by National Weather Service (NWS)

                            
000
ASUS45 KABQ 210310
RWRNM 
NEW MEXICO REGIONAL WEATHER ROUNDUP
NATIONAL WEATHER SERVICE ALBUQUERQUE NM
900 PM MDT FRI SEP 20 2019

NOTE: "FAIR" MEANS FEW OR NO CLOUDS BELOW 12,000 FEET AGL WITH NO
       SIGNIFICANT WEATHER OR OBSTRUCTIONS TO VISION.

      THIS PRODUCT IS RELEASED AS TWO VERSIONS.  ONE VERSION NEAR
      THE TOP OF THE HOUR CONTAINING PRELIMINARY DATA FROM ALBUQUERQUE
      AND OTHER STATIONS.  A FINAL VERSION WITH ADDITIONAL DATA IS 
      ISSUED ABOUT 10 MINUTES AFTER THE HOUR.
 
NMZ501-503-504-510>518-210400-
NORTHWEST PLATEAU/NORTHCENTRAL MOUNTAINS
  
CITY           SKY/WX    TMP DP  RH WIND       PRES   REMARKS
FARMINGTON     FAIR      65  20  17 W7        29.97R                  
LOS ALAMOS     FAIR      66  27  23 SW8       30.11R                  
SANTA FE       FAIR      66  30  26 SE3       30.04R                  
TAOS           FAIR      61  27  27 SW7       30.10R                  

$$
NMZ402-403-502-505>509-210400-
WESTCENTRAL MOUNTAINS/SOUTHWEST MOUNTAINS
  
CITY           SKY/WX    TMP DP  RH WIND       PRES   REMARKS
GALLUP         FAIR      65  27  23 SW12      30.08R                  
GRANTS         FAIR      55  36  48 CALM      30.12R                  
SILVER CITY    FAIR      63  46  53 NW6       30.06R                  

$$
NMZ407-409-411-412-210400-
SOUTHERN DESERTS
  
CITY           SKY/WX    TMP DP  RH WIND       PRES   REMARKS
DEMING         MOCLDY    74  51  44 SW5       29.97R                  
LAS CRUCES     FAIR      75  45  34 SW5       29.99R                  
HOLLOMAN AFB   FAIR      76  44  30 S5        29.98R                  
ALAMOGORDO     FAIR      73  45  35 S5        29.98R                  
T OR C         FAIR      76  43  30 W7        29.99R                  

$$
NMZ519>523-210400-
CENTRAL VALLEYS/CENTRAL HIGHLANDS
  
CITY           SKY/WX    TMP DP  RH WIND       PRES   REMARKS
ALBUQUERQUE    FAIR      77  29  17 SW13      29.99R                  
DOUBLE EAGLE   PTCLDY    66  34  30 SW8       30.03R                  
MORIARTY ARPT  FAIR      59  40  48 S6        30.08R                  
CLINES CORNERS FAIR      63  36  36 SW15      30.13R                  
BELEN          FAIR      72  27  18 SW9       29.99R                  
SOCORRO        FAIR      74  31  20 W8        29.98R                  

$$
NMZ524>526-539-540-210400-
SOUTHCENTRAL MOUNTAINS
  
CITY           SKY/WX    TMP DP  RH WIND       PRES   REMARKS
RUIDOSO        FAIR      63  39  42 SE5       30.18R                  

$$
NMZ527>531-210400-
NORTHEAST HIGHLANDS/NORTHEAST PLAINS
  
CITY           SKY/WX    TMP DP  RH WIND       PRES   REMARKS
RATON          FAIR      62  44  51 S9        30.01R                  
CLAYTON        FAIR      64  58  80 S15       29.97R                  

$$
NMZ532>537-210400-
EASTCENTRAL PLAINS
  
CITY           SKY/WX    TMP DP  RH WIND       PRES   REMARKS
TUCUMCARI      FAIR      68  60  75 S13       29.93R                  
CANNON AFB     FAIR      69  65  86 SE10      30.04R                  
CLOVIS AIRPORT FAIR      68  64  87 SE10      30.04R                  

$$
NMZ028-029-033-538-210400-
SOUTHEAST PLAINS
  
CITY           SKY/WX    TMP DP  RH WIND       PRES   REMARKS
ROSWELL        FAIR      81  55  40 S9        29.92R                  
ARTESIA        FAIR      79  63  57 S13       29.95R                  
CARLSBAD       FAIR      79  61  53 S9        29.92R                  
HOBBS          CLOUDY    75  66  73 SE13      29.98R                  


$$